Year,Month,Day,Hour,Minute,Value (Times are PST for temperature in C)
2009,08,19,00,00,16.70
2009,08,19,00,01,16.60
2009,08,19,00,02,16.60
2009,08,19,00,03,16.60
2009,08,19,00,04,16.50
2009,08,19,00,05,16.50
2009,08,19,00,06,16.40
2009,08,19,00,07,16.40
2009,08,19,00,08,16.40
2009,08,19,00,09,16.40
2009,08,19,00,10,16.30
2009,08,19,00,11,16.30
2009,08,19,00,12,16.30
2009,08,19,00,13,16.30
2009,08,19,00,14,16.30
2009,08,19,00,15,16.20
2009,08,19,00,16,16.20
2009,08,19,00,17,16.20
2009,08,19,00,18,16.10
2009,08,19,00,19,16.10
2009,08,19,00,20,16.10
2009,08,19,00,21,16.00
2009,08,19,00,22,16.00
2009,08,19,00,23,15.90
2009,08,19,00,24,15.90
2009,08,19,00,25,15.90
2009,08,19,00,26,15.80
2009,08,19,00,27,15.80
2009,08,19,00,28,15.80
2009,08,19,00,29,15.70
2009,08,19,00,30,15.70
2009,08,19,00,31,15.70
2009,08,19,00,32,15.60
2009,08,19,00,33,15.60
2009,08,19,00,34,15.60
2009,08,19,00,35,15.50
2009,08,19,00,36,15.50
2009,08,19,00,37,15.40
2009,08,19,00,38,15.40
2009,08,19,00,39,15.40
2009,08,19,00,40,15.40
2009,08,19,00,41,15.40
2009,08,19,00,42,15.30
2009,08,19,00,43,15.30
2009,08,19,00,44,15.30
2009,08,19,00,45,15.30
2009,08,19,00,46,15.20
2009,08,19,00,47,15.20
2009,08,19,00,48,15.20
2009,08,19,00,49,15.20
2009,08,19,00,50,15.20
2009,08,19,00,51,15.10
2009,08,19,00,52,15.10
2009,08,19,00,53,15.10
2009,08,19,00,54,15.10
2009,08,19,00,55,15.10
2009,08,19,00,56,15.10
2009,08,19,00,57,15.10
2009,08,19,00,58,15.10
2009,08,19,00,59,15.10
2009,08,19,01,00,15.10
2009,08,19,01,01,15.10
2009,08,19,01,02,15.20
2009,08,19,01,03,15.20
2009,08,19,01,04,15.20
2009,08,19,01,05,15.20
2009,08,19,01,06,15.20
2009,08,19,01,07,15.20
2009,08,19,01,08,15.30
2009,08,19,01,09,15.30
2009,08,19,01,10,15.30
2009,08,19,01,11,15.30
2009,08,19,01,12,15.30
2009,08,19,01,13,15.30
2009,08,19,01,14,15.30
2009,08,19,01,15,15.30
2009,08,19,01,16,15.30
2009,08,19,01,17,15.30
2009,08,19,01,18,15.30
2009,08,19,01,19,15.30
2009,08,19,01,20,15.30
2009,08,19,01,21,15.30
2009,08,19,01,22,15.30
2009,08,19,01,23,15.30
2009,08,19,01,24,15.30
2009,08,19,01,25,15.30
2009,08,19,01,26,15.30
2009,08,19,01,27,15.30
2009,08,19,01,28,15.30
2009,08,19,01,29,15.30
2009,08,19,01,30,15.30
2009,08,19,01,31,15.30
2009,08,19,01,32,15.40
2009,08,19,01,33,15.40
2009,08,19,01,34,15.40
2009,08,19,01,35,15.40
2009,08,19,01,36,15.40
2009,08,19,01,37,15.50
2009,08,19,01,38,15.50
2009,08,19,01,39,15.50
2009,08,19,01,40,15.60
2009,08,19,01,41,15.60
2009,08,19,01,42,15.60
2009,08,19,01,43,15.60
2009,08,19,01,44,15.60
2009,08,19,01,45,15.60
2009,08,19,01,46,15.60
2009,08,19,01,47,15.60
2009,08,19,01,48,15.60
2009,08,19,01,49,15.60
2009,08,19,01,50,15.60
2009,08,19,01,51,15.60
2009,08,19,01,52,15.60
2009,08,19,01,53,15.60
2009,08,19,01,54,15.60
2009,08,19,01,55,15.70
2009,08,19,01,56,15.70
2009,08,19,01,57,15.80
2009,08,19,01,58,15.80
2009,08,19,01,59,15.90
2009,08,19,02,00,15.90
2009,08,19,02,01,16.00
2009,08,19,02,02,16.10
2009,08,19,02,03,16.10
2009,08,19,02,04,16.10
2009,08,19,02,05,16.20
2009,08,19,02,06,16.20
2009,08,19,02,07,16.20
2009,08,19,02,08,16.20
2009,08,19,02,09,16.20
2009,08,19,02,10,16.20
2009,08,19,02,11,16.20
2009,08,19,02,12,16.20
2009,08,19,02,13,16.20
2009,08,19,02,14,16.20
2009,08,19,02,15,16.20
2009,08,19,02,16,16.20
2009,08,19,02,17,16.20
2009,08,19,02,18,16.20
2009,08,19,02,19,16.20
2009,08,19,02,20,16.20
2009,08,19,02,21,16.20
2009,08,19,02,22,16.20
2009,08,19,02,23,16.20
2009,08,19,02,24,16.20
2009,08,19,02,25,16.20
2009,08,19,02,26,16.20
2009,08,19,02,27,16.30
2009,08,19,02,28,16.20
2009,08,19,02,29,16.20
2009,08,19,02,30,16.30
2009,08,19,02,31,16.30
2009,08,19,02,32,16.30
2009,08,19,02,33,16.40
2009,08,19,02,34,16.50
2009,08,19,02,35,16.60
2009,08,19,02,36,16.70
2009,08,19,02,37,16.80
2009,08,19,02,38,16.90
2009,08,19,02,39,17.00
2009,08,19,02,40,17.00
2009,08,19,02,41,17.10
2009,08,19,02,42,17.20
2009,08,19,02,43,17.20
2009,08,19,02,44,17.20
2009,08,19,02,45,17.30
2009,08,19,02,46,17.30
2009,08,19,02,47,17.40
2009,08,19,02,48,17.40
2009,08,19,02,49,17.40
2009,08,19,02,50,17.40
2009,08,19,02,51,17.50
2009,08,19,02,52,17.50
2009,08,19,02,53,17.50
2009,08,19,02,54,17.60
2009,08,19,02,55,17.60
2009,08,19,02,56,17.60
2009,08,19,02,57,17.60
2009,08,19,02,58,17.60
2009,08,19,02,59,17.60
2009,08,19,03,00,17.60
2009,08,19,03,01,17.60
2009,08,19,03,02,17.60
2009,08,19,03,03,17.60
2009,08,19,03,04,17.60
2009,08,19,03,05,17.60
2009,08,19,03,06,17.60
2009,08,19,03,07,17.70
2009,08,19,03,08,17.70
2009,08,19,03,09,17.70
2009,08,19,03,10,17.80
2009,08,19,03,11,17.80
2009,08,19,03,12,17.80
2009,08,19,03,13,17.80
2009,08,19,03,14,17.80
2009,08,19,03,15,17.70
2009,08,19,03,16,17.70
2009,08,19,03,17,17.70
2009,08,19,03,18,17.70
2009,08,19,03,19,17.70
2009,08,19,03,20,17.60
2009,08,19,03,21,17.60
2009,08,19,03,22,17.60
2009,08,19,03,23,17.50
2009,08,19,03,24,17.50
2009,08,19,03,25,17.40
2009,08,19,03,26,17.40
2009,08,19,03,27,17.40
2009,08,19,03,28,17.30
2009,08,19,03,29,17.30
2009,08,19,03,30,17.30
2009,08,19,03,31,17.20
2009,08,19,03,32,17.20
2009,08,19,03,33,17.20
2009,08,19,03,34,17.20
2009,08,19,03,35,17.10
2009,08,19,03,36,17.10
2009,08,19,03,37,17.10
2009,08,19,03,38,17.20
2009,08,19,03,39,17.20
2009,08,19,03,40,17.20
2009,08,19,03,41,17.20
2009,08,19,03,42,17.20
2009,08,19,03,43,17.20
2009,08,19,03,44,17.10
2009,08,19,03,45,17.10
2009,08,19,03,46,17.10
2009,08,19,03,47,17.10
2009,08,19,03,48,17.10
2009,08,19,03,49,17.20
2009,08,19,03,50,17.20
2009,08,19,03,51,17.20
2009,08,19,03,52,17.30
2009,08,19,03,53,17.30
2009,08,19,03,54,17.30
2009,08,19,03,55,17.30
2009,08,19,03,56,17.40
2009,08,19,03,57,17.40
2009,08,19,03,58,17.40
2009,08,19,03,59,17.40
2009,08,19,04,00,17.40
2009,08,19,04,01,17.40
2009,08,19,04,02,17.40
2009,08,19,04,03,17.40
2009,08,19,04,04,17.40
2009,08,19,04,05,17.40
2009,08,19,04,06,17.40
2009,08,19,04,07,17.40
2009,08,19,04,08,17.30
2009,08,19,04,09,17.40
2009,08,19,04,10,17.40
2009,08,19,04,11,17.40
2009,08,19,04,12,17.40
2009,08,19,04,13,17.40
2009,08,19,04,14,17.40
2009,08,19,04,15,17.40
2009,08,19,04,16,17.40
2009,08,19,04,17,17.50
2009,08,19,04,18,17.50
2009,08,19,04,19,17.50
2009,08,19,04,20,17.50
2009,08,19,04,21,17.40
2009,08,19,04,22,17.40
2009,08,19,04,23,17.30
2009,08,19,04,24,17.30
2009,08,19,04,25,17.30
2009,08,19,04,26,17.20
2009,08,19,04,27,17.20
2009,08,19,04,28,17.20
2009,08,19,04,29,17.10
2009,08,19,04,30,17.10
2009,08,19,04,31,17.10
2009,08,19,04,32,17.00
2009,08,19,04,33,17.00
2009,08,19,04,34,16.90
2009,08,19,04,35,16.90
2009,08,19,04,36,16.80
2009,08,19,04,37,16.80
2009,08,19,04,38,16.80
2009,08,19,04,39,16.70
2009,08,19,04,40,16.70
2009,08,19,04,41,16.70
2009,08,19,04,42,16.60
2009,08,19,04,43,16.60
2009,08,19,04,44,16.60
2009,08,19,04,45,16.50
2009,08,19,04,46,16.50
2009,08,19,04,47,16.40
2009,08,19,04,48,16.40
2009,08,19,04,49,16.40
2009,08,19,04,50,16.30
2009,08,19,04,51,16.30
2009,08,19,04,52,16.30
2009,08,19,04,53,16.20
2009,08,19,04,54,16.20
2009,08,19,04,55,16.20
2009,08,19,04,56,16.10
2009,08,19,04,57,16.10
2009,08,19,04,58,16.10
2009,08,19,04,59,16.00
2009,08,19,05,00,16.00
2009,08,19,05,01,16.00
2009,08,19,05,02,15.90
2009,08,19,05,03,15.90
2009,08,19,05,04,15.90
2009,08,19,05,05,15.90
2009,08,19,05,06,15.80
2009,08,19,05,07,15.80
2009,08,19,05,08,15.80
2009,08,19,05,09,15.80
2009,08,19,05,10,15.80
2009,08,19,05,11,15.70
2009,08,19,05,12,15.70
2009,08,19,05,13,15.70
2009,08,19,05,14,15.70
2009,08,19,05,15,15.60
2009,08,19,05,16,15.60
2009,08,19,05,17,15.60
2009,08,19,05,18,15.60
2009,08,19,05,19,15.60
2009,08,19,05,20,15.60
2009,08,19,05,21,15.50
2009,08,19,05,22,15.50
2009,08,19,05,23,15.50
2009,08,19,05,24,15.50
2009,08,19,05,25,15.40
2009,08,19,05,26,15.40
2009,08,19,05,27,15.40
2009,08,19,05,28,15.30
2009,08,19,05,29,15.30
2009,08,19,05,30,15.30
2009,08,19,05,31,15.20
2009,08,19,05,32,15.20
2009,08,19,05,33,15.10
2009,08,19,05,34,15.10
2009,08,19,05,35,15.10
2009,08,19,05,36,15.00
2009,08,19,05,37,15.00
2009,08,19,05,38,14.90
2009,08,19,05,39,14.90
2009,08,19,05,40,14.90
2009,08,19,05,41,14.80
2009,08,19,05,42,14.80
2009,08,19,05,43,14.70
2009,08,19,05,44,14.70
2009,08,19,05,45,14.60
2009,08,19,05,46,14.60
2009,08,19,05,47,14.60
2009,08,19,05,48,14.50
2009,08,19,05,49,14.50
2009,08,19,05,50,14.40
2009,08,19,05,51,14.40
2009,08,19,05,52,14.40
2009,08,19,05,53,14.30
2009,08,19,05,54,14.30
2009,08,19,05,55,14.30
2009,08,19,05,56,14.30
2009,08,19,05,57,14.30
2009,08,19,05,58,14.30
2009,08,19,05,59,14.20
2009,08,19,06,00,14.20
2009,08,19,06,01,14.20
2009,08,19,06,02,14.20
2009,08,19,06,03,14.20
2009,08,19,06,04,14.20
2009,08,19,06,05,14.10
2009,08,19,06,06,14.10
2009,08,19,06,07,14.10
2009,08,19,06,08,14.10
2009,08,19,06,09,14.00
2009,08,19,06,10,14.00
2009,08,19,06,11,14.00
2009,08,19,06,12,14.00
2009,08,19,06,13,13.90
2009,08,19,06,14,13.90
2009,08,19,06,15,13.90
2009,08,19,06,16,13.90
2009,08,19,06,17,13.90
2009,08,19,06,18,13.90
2009,08,19,06,19,13.90
2009,08,19,06,20,13.90
2009,08,19,06,21,13.90
2009,08,19,06,22,13.90
2009,08,19,06,23,13.90
2009,08,19,06,24,13.90
2009,08,19,06,25,13.90
2009,08,19,06,26,13.90
2009,08,19,06,27,13.90
2009,08,19,06,28,13.90
2009,08,19,06,29,13.90
2009,08,19,06,30,13.90
2009,08,19,06,31,13.90
2009,08,19,06,32,13.90
2009,08,19,06,33,13.90
2009,08,19,06,34,13.90
2009,08,19,06,35,13.90
2009,08,19,06,36,13.90
2009,08,19,06,37,13.90
2009,08,19,06,38,13.90
2009,08,19,06,39,13.90
2009,08,19,06,40,13.90
2009,08,19,06,41,13.90
2009,08,19,06,42,13.90
2009,08,19,06,43,13.90
2009,08,19,06,44,13.90
2009,08,19,06,45,14.00
2009,08,19,06,46,14.00
2009,08,19,06,47,14.00
2009,08,19,06,48,14.00
2009,08,19,06,49,14.10
2009,08,19,06,50,14.10
2009,08,19,06,51,14.10
2009,08,19,06,52,14.10
2009,08,19,06,53,14.20
2009,08,19,06,54,14.20
2009,08,19,06,55,14.20
2009,08,19,06,56,14.20
2009,08,19,06,57,14.30
2009,08,19,06,58,14.30
2009,08,19,06,59,14.30
2009,08,19,07,00,14.30
2009,08,19,07,01,14.30
2009,08,19,07,02,14.30
2009,08,19,07,03,14.40
2009,08,19,07,04,14.40
2009,08,19,07,05,14.40
2009,08,19,07,06,14.40
2009,08,19,07,07,14.40
2009,08,19,07,08,14.40
2009,08,19,07,09,14.40
2009,08,19,07,10,14.40
2009,08,19,07,11,14.40
2009,08,19,07,12,14.40
2009,08,19,07,13,14.40
2009,08,19,07,14,14.50
2009,08,19,07,15,14.50
2009,08,19,07,16,14.50
2009,08,19,07,17,14.50
2009,08,19,07,18,14.60
2009,08,19,07,19,14.60
2009,08,19,07,20,14.60
2009,08,19,07,21,14.70
2009,08,19,07,22,14.70
2009,08,19,07,23,14.70
2009,08,19,07,24,14.80
2009,08,19,07,25,14.80
2009,08,19,07,26,14.90
2009,08,19,07,27,14.90
2009,08,19,07,28,14.90
2009,08,19,07,29,15.00
2009,08,19,07,30,15.00
2009,08,19,07,31,15.10
2009,08,19,07,32,15.10
2009,08,19,07,33,15.10
2009,08,19,07,34,15.20
2009,08,19,07,35,15.20
2009,08,19,07,36,15.20
2009,08,19,07,37,15.30
2009,08,19,07,38,15.30
2009,08,19,07,39,15.30
2009,08,19,07,40,15.40
2009,08,19,07,41,15.40
2009,08,19,07,42,15.50
2009,08,19,07,43,15.60
2009,08,19,07,44,15.70
2009,08,19,07,45,15.80
2009,08,19,07,46,15.90
2009,08,19,07,47,16.10
2009,08,19,07,48,16.20
2009,08,19,07,49,16.30
2009,08,19,07,50,16.40
2009,08,19,07,51,16.50
2009,08,19,07,52,16.50
2009,08,19,07,53,16.60
2009,08,19,07,54,16.70
2009,08,19,07,55,16.80
2009,08,19,07,56,16.80
2009,08,19,07,57,16.90
2009,08,19,07,58,16.90
2009,08,19,07,59,17.00
2009,08,19,08,00,17.10
2009,08,19,08,01,17.20
2009,08,19,08,02,17.20
2009,08,19,08,03,17.30
2009,08,19,08,04,17.40
2009,08,19,08,05,17.50
2009,08,19,08,06,17.50
2009,08,19,08,07,17.60
2009,08,19,08,08,17.70
2009,08,19,08,09,17.70
2009,08,19,08,10,17.80
2009,08,19,08,11,17.90
2009,08,19,08,12,17.90
2009,08,19,08,13,18.00
2009,08,19,08,14,18.10
2009,08,19,08,15,18.20
2009,08,19,08,16,18.30
2009,08,19,08,17,18.30
2009,08,19,08,18,18.40
2009,08,19,08,19,18.50
2009,08,19,08,20,18.50
2009,08,19,08,21,18.60
2009,08,19,08,22,18.70
2009,08,19,08,23,18.70
2009,08,19,08,24,18.80
2009,08,19,08,25,18.80
2009,08,19,08,26,18.90
2009,08,19,08,27,18.90
2009,08,19,08,28,19.00
2009,08,19,08,29,19.00
2009,08,19,08,30,19.10
2009,08,19,08,31,19.20
2009,08,19,08,32,19.20
2009,08,19,08,33,19.20
2009,08,19,08,34,19.30
2009,08,19,08,35,19.30
2009,08,19,08,36,19.40
2009,08,19,08,37,19.40
2009,08,19,08,38,19.40
2009,08,19,08,39,19.50
2009,08,19,08,40,19.50
2009,08,19,08,41,19.50
2009,08,19,08,42,19.60
2009,08,19,08,43,19.60
2009,08,19,08,44,19.60
2009,08,19,08,45,19.60
2009,08,19,08,46,19.60
2009,08,19,08,47,19.60
2009,08,19,08,48,19.60
2009,08,19,08,49,19.70
2009,08,19,08,50,19.70
2009,08,19,08,51,19.70
2009,08,19,08,52,19.70
2009,08,19,08,53,19.70
2009,08,19,08,54,19.70
2009,08,19,08,55,19.70
2009,08,19,08,56,19.80
2009,08,19,08,57,19.80
2009,08,19,08,58,19.80
2009,08,19,08,59,19.80
2009,08,19,09,00,19.80
2009,08,19,09,01,19.80
2009,08,19,09,02,19.80
2009,08,19,09,03,19.90
2009,08,19,09,04,19.90
2009,08,19,09,05,19.90
2009,08,19,09,06,20.00
2009,08,19,09,07,20.00
2009,08,19,09,08,20.10
2009,08,19,09,09,20.10
2009,08,19,09,10,20.10
2009,08,19,09,11,20.10
2009,08,19,09,12,20.10
2009,08,19,09,13,20.10
2009,08,19,09,14,20.10
2009,08,19,09,15,20.10
2009,08,19,09,16,20.10
2009,08,19,09,17,20.20
2009,08,19,09,18,20.20
2009,08,19,09,19,20.20
2009,08,19,09,20,20.20
2009,08,19,09,21,20.30
2009,08,19,09,22,20.30
2009,08,19,09,23,20.30
2009,08,19,09,24,20.30
2009,08,19,09,25,20.40
2009,08,19,09,26,20.40
2009,08,19,09,27,20.40
2009,08,19,09,28,20.40
2009,08,19,09,29,20.50
2009,08,19,09,30,20.50
2009,08,19,09,31,20.50
2009,08,19,09,32,20.50
2009,08,19,09,33,20.50
2009,08,19,09,34,20.50
2009,08,19,09,35,20.50
2009,08,19,09,36,20.50
2009,08,19,09,37,20.60
2009,08,19,09,38,20.60
2009,08,19,09,39,20.60
2009,08,19,09,40,20.70
2009,08,19,09,41,20.70
2009,08,19,09,42,20.70
2009,08,19,09,43,20.80
2009,08,19,09,44,20.80
2009,08,19,09,45,20.90
2009,08,19,09,46,20.90
2009,08,19,09,47,21.00
2009,08,19,09,48,21.00
2009,08,19,09,49,20.90
2009,08,19,09,50,20.90
2009,08,19,09,51,20.90
2009,08,19,09,52,20.80
2009,08,19,09,53,20.80
2009,08,19,09,54,20.80
2009,08,19,09,55,20.80
2009,08,19,09,56,20.90
2009,08,19,09,57,20.90
2009,08,19,09,58,20.90
2009,08,19,09,59,21.00
2009,08,19,10,00,21.00
2009,08,19,10,01,21.00
2009,08,19,10,02,21.10
2009,08,19,10,03,21.10
2009,08,19,10,04,21.20
2009,08,19,10,05,21.20
2009,08,19,10,06,21.20
2009,08,19,10,07,21.30
2009,08,19,10,08,21.30
2009,08,19,10,09,21.30
2009,08,19,10,10,21.30
2009,08,19,10,11,21.30
2009,08,19,10,12,21.40
2009,08,19,10,13,21.40
2009,08,19,10,14,21.40
2009,08,19,10,15,21.40
2009,08,19,10,16,21.50
2009,08,19,10,17,21.50
2009,08,19,10,18,21.60
2009,08,19,10,19,21.70
2009,08,19,10,20,21.70
2009,08,19,10,21,21.80
2009,08,19,10,22,21.90
2009,08,19,10,23,21.90
2009,08,19,10,24,22.00
2009,08,19,10,25,22.00
2009,08,19,10,26,22.10
2009,08,19,10,27,22.10
2009,08,19,10,28,22.10
2009,08,19,10,29,22.10
2009,08,19,10,30,22.10
2009,08,19,10,31,22.10
2009,08,19,10,32,22.10
2009,08,19,10,33,22.10
2009,08,19,10,34,22.00
2009,08,19,10,35,22.00
2009,08,19,10,36,22.00
2009,08,19,10,37,22.00
2009,08,19,10,38,22.00
2009,08,19,10,39,22.10
2009,08,19,10,40,22.10
2009,08,19,10,41,22.20
2009,08,19,10,42,22.30
2009,08,19,10,43,22.30
2009,08,19,10,44,22.30
2009,08,19,10,45,22.40
2009,08,19,10,46,22.30
2009,08,19,10,47,22.30
2009,08,19,10,48,22.30
2009,08,19,10,49,22.30
2009,08,19,10,50,22.20
2009,08,19,10,51,22.20
2009,08,19,10,52,22.20
2009,08,19,10,53,22.30
2009,08,19,10,54,22.30
2009,08,19,10,55,22.30
2009,08,19,10,56,22.30
2009,08,19,10,57,22.20
2009,08,19,10,58,22.20
2009,08,19,10,59,22.20
2009,08,19,11,00,22.20
2009,08,19,11,01,22.20
2009,08,19,11,02,22.20
2009,08,19,11,03,22.20
2009,08,19,11,04,22.20
2009,08,19,11,05,22.20
2009,08,19,11,06,22.20
2009,08,19,11,07,22.20
2009,08,19,11,08,22.30
2009,08,19,11,09,22.30
2009,08,19,11,10,22.30
2009,08,19,11,11,22.30
2009,08,19,11,12,22.40
2009,08,19,11,13,22.40
2009,08,19,11,14,22.40
2009,08,19,11,15,22.40
2009,08,19,11,16,22.40
2009,08,19,11,17,22.40
2009,08,19,11,18,22.40
2009,08,19,11,19,22.40
2009,08,19,11,20,22.40
2009,08,19,11,21,22.50
2009,08,19,11,22,22.50
2009,08,19,11,23,22.50
2009,08,19,11,24,22.60
2009,08,19,11,25,22.60
2009,08,19,11,26,22.50
2009,08,19,11,27,22.60
2009,08,19,11,28,22.60
2009,08,19,11,29,22.60
2009,08,19,11,30,22.70
2009,08,19,11,31,22.70
2009,08,19,11,32,22.80
2009,08,19,11,33,22.80
2009,08,19,11,34,22.80
2009,08,19,11,35,22.90
2009,08,19,11,36,22.90
2009,08,19,11,37,23.00
2009,08,19,11,38,23.00
2009,08,19,11,39,23.10
2009,08,19,11,40,23.10
2009,08,19,11,41,23.10
2009,08,19,11,42,23.10
2009,08,19,11,43,23.20
2009,08,19,11,44,23.20
2009,08,19,11,45,23.20
2009,08,19,11,46,23.30
2009,08,19,11,47,23.30
2009,08,19,11,48,23.30
2009,08,19,11,49,23.40
2009,08,19,11,50,23.40
2009,08,19,11,51,23.30
2009,08,19,11,52,23.30
2009,08,19,11,53,23.30
2009,08,19,11,54,23.40
2009,08,19,11,55,23.40
2009,08,19,11,56,23.50
2009,08,19,11,57,23.50
2009,08,19,11,58,23.60
2009,08,19,11,59,23.60
2009,08,19,12,00,23.60
2009,08,19,12,01,23.60
2009,08,19,12,02,23.70
2009,08,19,12,03,23.60
2009,08,19,12,04,23.60
2009,08,19,12,05,23.60
2009,08,19,12,06,23.50
2009,08,19,12,07,23.50
2009,08,19,12,08,23.50
2009,08,19,12,09,23.40
2009,08,19,12,10,23.40
2009,08,19,12,11,23.40
2009,08,19,12,12,23.40
2009,08,19,12,13,23.40
2009,08,19,12,14,23.40
2009,08,19,12,15,23.40
2009,08,19,12,16,23.40
2009,08,19,12,17,23.40
2009,08,19,12,18,23.40
2009,08,19,12,19,23.40
2009,08,19,12,20,23.30
2009,08,19,12,21,23.30
2009,08,19,12,22,23.30
2009,08,19,12,23,23.30
2009,08,19,12,24,23.20
2009,08,19,12,25,23.20
2009,08,19,12,26,23.30
2009,08,19,12,27,23.30
2009,08,19,12,28,23.30
2009,08,19,12,29,23.40
2009,08,19,12,30,23.40
2009,08,19,12,31,23.50
2009,08,19,12,32,23.50
2009,08,19,12,33,23.60
2009,08,19,12,34,23.60
2009,08,19,12,35,23.60
2009,08,19,12,36,23.60
2009,08,19,12,37,23.60
2009,08,19,12,38,23.70
2009,08,19,12,39,23.70
2009,08,19,12,40,23.70
2009,08,19,12,41,23.70
2009,08,19,12,42,23.70
2009,08,19,12,43,23.70
2009,08,19,12,44,23.70
2009,08,19,12,45,23.70
2009,08,19,12,46,23.70
2009,08,19,12,47,23.70
2009,08,19,12,48,23.70
2009,08,19,12,49,23.70
2009,08,19,12,50,23.70
2009,08,19,12,51,23.80
2009,08,19,12,52,23.80
2009,08,19,12,53,23.80
2009,08,19,12,54,23.80
2009,08,19,12,55,23.80
2009,08,19,12,56,23.80
2009,08,19,12,57,23.80
2009,08,19,12,58,23.90
2009,08,19,12,59,23.90
2009,08,19,13,00,23.90
2009,08,19,13,01,24.00
2009,08,19,13,02,24.00
2009,08,19,13,03,24.00
2009,08,19,13,04,24.10
2009,08,19,13,05,24.20
2009,08,19,13,06,24.20
2009,08,19,13,07,24.20
2009,08,19,13,08,24.30
2009,08,19,13,09,24.30
2009,08,19,13,10,24.30
2009,08,19,13,11,24.40
2009,08,19,13,12,24.40
2009,08,19,13,13,24.40
2009,08,19,13,14,24.50
2009,08,19,13,15,24.50
2009,08,19,13,16,24.50
2009,08,19,13,17,24.50
2009,08,19,13,18,24.60
2009,08,19,13,19,24.60
2009,08,19,13,20,24.60
2009,08,19,13,21,24.60
2009,08,19,13,22,24.60
2009,08,19,13,23,24.60
2009,08,19,13,24,24.60
2009,08,19,13,25,24.60
2009,08,19,13,26,24.70
2009,08,19,13,27,24.70
2009,08,19,13,28,24.80
2009,08,19,13,29,24.80
2009,08,19,13,30,24.90
2009,08,19,13,31,24.90
2009,08,19,13,32,24.90
2009,08,19,13,33,24.90
2009,08,19,13,34,24.90
2009,08,19,13,35,24.90
2009,08,19,13,36,25.00
2009,08,19,13,37,25.00
2009,08,19,13,38,25.00
2009,08,19,13,39,25.10
2009,08,19,13,40,25.10
2009,08,19,13,41,25.20
2009,08,19,13,42,25.20
2009,08,19,13,43,25.20
2009,08,19,13,44,25.20
2009,08,19,13,45,25.20
2009,08,19,13,46,25.30
2009,08,19,13,47,25.30
2009,08,19,13,48,25.30
2009,08,19,13,49,25.40
2009,08,19,13,50,25.40
2009,08,19,13,51,25.40
2009,08,19,13,52,25.40
2009,08,19,13,53,25.40
2009,08,19,13,54,25.40
2009,08,19,13,55,25.40
2009,08,19,13,56,25.40
2009,08,19,13,57,25.40
2009,08,19,13,58,25.40
2009,08,19,13,59,25.40
2009,08,19,14,00,25.40
2009,08,19,14,01,25.40
2009,08,19,14,02,25.40
2009,08,19,14,03,25.40
2009,08,19,14,04,25.40
2009,08,19,14,05,25.50
2009,08,19,14,06,25.50
2009,08,19,14,07,25.40
2009,08,19,14,08,25.40
2009,08,19,14,09,25.40
2009,08,19,14,10,25.40
2009,08,19,14,11,25.40
2009,08,19,14,12,25.40
2009,08,19,14,13,25.40
2009,08,19,14,14,25.40
2009,08,19,14,15,25.40
2009,08,19,14,16,25.40
2009,08,19,14,17,25.50
2009,08,19,14,18,25.50
2009,08,19,14,19,25.50
2009,08,19,14,20,25.60
2009,08,19,14,21,25.60
2009,08,19,14,22,25.70
2009,08,19,14,23,25.80
2009,08,19,14,24,25.80
2009,08,19,14,25,25.90
2009,08,19,14,26,25.90
2009,08,19,14,27,25.90
2009,08,19,14,28,25.90
2009,08,19,14,29,25.80
2009,08,19,14,30,25.80
2009,08,19,14,31,25.90
2009,08,19,14,32,25.90
2009,08,19,14,33,25.90
2009,08,19,14,34,25.90
2009,08,19,14,35,25.90
2009,08,19,14,36,26.00
2009,08,19,14,37,26.10
2009,08,19,14,38,26.10
2009,08,19,14,39,26.20
2009,08,19,14,40,26.20
2009,08,19,14,41,26.20
2009,08,19,14,42,26.10
2009,08,19,14,43,26.10
2009,08,19,14,44,26.10
2009,08,19,14,45,26.10
2009,08,19,14,46,26.20
2009,08,19,14,47,26.10
2009,08,19,14,48,26.10
2009,08,19,14,49,26.10
2009,08,19,14,50,26.10
2009,08,19,14,51,26.10
2009,08,19,14,52,26.20
2009,08,19,14,53,26.30
2009,08,19,14,54,26.40
2009,08,19,14,55,26.40
2009,08,19,14,56,26.60
2009,08,19,14,57,26.60
2009,08,19,14,58,26.70
2009,08,19,14,59,26.80
2009,08,19,15,00,26.70
2009,08,19,15,01,26.70
2009,08,19,15,02,26.70
2009,08,19,15,03,26.70
2009,08,19,15,04,26.60
2009,08,19,15,05,26.60
2009,08,19,15,06,26.60
2009,08,19,15,07,26.60
2009,08,19,15,08,26.60
2009,08,19,15,09,26.60
2009,08,19,15,10,26.60
2009,08,19,15,11,26.70
2009,08,19,15,12,26.70
2009,08,19,15,13,26.80
2009,08,19,15,14,26.80
2009,08,19,15,15,26.80
2009,08,19,15,16,26.80
2009,08,19,15,17,26.80
2009,08,19,15,18,26.80
2009,08,19,15,19,26.80
2009,08,19,15,20,26.80
2009,08,19,15,21,26.70
2009,08,19,15,22,26.70
2009,08,19,15,23,26.70
2009,08,19,15,24,26.70
2009,08,19,15,25,26.70
2009,08,19,15,26,26.70
2009,08,19,15,27,26.70
2009,08,19,15,28,26.60
2009,08,19,15,29,26.60
2009,08,19,15,30,26.60
2009,08,19,15,31,26.60
2009,08,19,15,32,26.70
2009,08,19,15,33,26.70
2009,08,19,15,34,26.70
2009,08,19,15,35,26.70
2009,08,19,15,36,26.70
2009,08,19,15,37,26.80
2009,08,19,15,38,26.80
2009,08,19,15,39,26.80
2009,08,19,15,40,26.80
2009,08,19,15,41,26.90
2009,08,19,15,42,26.90
2009,08,19,15,43,26.90
2009,08,19,15,44,26.90
2009,08,19,15,45,26.80
2009,08,19,15,46,26.90
2009,08,19,15,47,26.90
2009,08,19,15,48,26.90
2009,08,19,15,49,26.90
2009,08,19,15,50,26.90
2009,08,19,15,51,27.00
2009,08,19,15,52,26.90
2009,08,19,15,53,27.00
2009,08,19,15,54,27.00
2009,08,19,15,55,27.00
2009,08,19,15,56,27.00
2009,08,19,15,57,27.00
2009,08,19,15,58,27.00
2009,08,19,15,59,27.10
2009,08,19,16,00,27.10
2009,08,19,16,01,27.10
2009,08,19,16,02,27.10
2009,08,19,16,03,27.10
2009,08,19,16,04,27.10
2009,08,19,16,05,27.10
2009,08,19,16,06,27.10
2009,08,19,16,07,27.10
2009,08,19,16,08,27.10
2009,08,19,16,09,27.10
2009,08,19,16,10,27.00
2009,08,19,16,11,27.10
2009,08,19,16,12,27.10
2009,08,19,16,13,27.10
2009,08,19,16,14,27.10
2009,08,19,16,15,27.20
2009,08,19,16,16,27.20
2009,08,19,16,17,27.30
2009,08,19,16,18,27.40
2009,08,19,16,19,27.40
2009,08,19,16,20,27.40
2009,08,19,16,21,27.40
2009,08,19,16,22,27.20
2009,08,19,16,23,27.00
2009,08,19,16,24,26.80
2009,08,19,16,25,26.50
2009,08,19,16,26,26.20
2009,08,19,16,27,26.00
2009,08,19,16,28,25.80
2009,08,19,16,29,25.50
2009,08,19,16,30,25.30
2009,08,19,16,31,25.20
2009,08,19,16,32,25.10
2009,08,19,16,33,25.00
2009,08,19,16,34,24.90
2009,08,19,16,35,24.80
2009,08,19,16,36,24.80
2009,08,19,16,37,24.70
2009,08,19,16,38,24.70
2009,08,19,16,39,24.60
2009,08,19,16,40,24.60
2009,08,19,16,41,24.50
2009,08,19,16,42,24.50
2009,08,19,16,43,24.40
2009,08,19,16,44,24.40
2009,08,19,16,45,24.40
2009,08,19,16,46,24.40
2009,08,19,16,47,24.40
2009,08,19,16,48,24.40
2009,08,19,16,49,24.40
2009,08,19,16,50,24.40
2009,08,19,16,51,24.50
2009,08,19,16,52,24.60
2009,08,19,16,53,24.60
2009,08,19,16,54,24.70
2009,08,19,16,55,24.80
2009,08,19,16,56,24.80
2009,08,19,16,57,24.90
2009,08,19,16,58,25.00
2009,08,19,16,59,25.00
2009,08,19,17,00,25.10
2009,08,19,17,01,25.20
2009,08,19,17,02,25.30
2009,08,19,17,03,25.30
2009,08,19,17,04,25.40
2009,08,19,17,05,25.40
2009,08,19,17,06,25.40
2009,08,19,17,07,25.40
2009,08,19,17,08,25.50
2009,08,19,17,09,25.50
2009,08,19,17,10,25.60
2009,08,19,17,11,25.70
2009,08,19,17,12,25.70
2009,08,19,17,13,25.70
2009,08,19,17,14,25.80
2009,08,19,17,15,25.80
2009,08,19,17,16,25.80
2009,08,19,17,17,25.90
2009,08,19,17,18,25.90
2009,08,19,17,19,26.00